Regional Weather Roundup
Issued by NWS

Home | Current Version | Previous Version | Text Only | Print | Product List | Glossary Off
Versions: 1 2 3 4 5 6 7 8 9 10 11 12 13 14 15 16 17 18 19 20 21 22 23 24 25 26 27 28 29 30 31 32 33 34 35 36 37 38 39 40 41 42 43 44 45 46 47 48 49 50

000
ASUS43 KMPX 251701
RWRMN
WEATHER ROUNDUP FOR MINNESOTA
NATIONAL WEATHER SERVICE TWIN CITIES/CHANHASSEN MN
1200 PM CDT FRI MAY 25 2018


NOTE: "FAIR" INDICATES FEW OR NO CLOUDS BELOW 12,000 FEET WITH NO
SIGNIFICANT WEATHER AND/OR OBSTRUCTIONS TO VISIBILITY. N/A MEANS
CURRENT SKY AND/OR WEATHER CONDITIONS ARE NOT AVAILABLE.

MNZ060>063-068>070-251800-
   Twin Cities Metro

CITY           SKY/WX    TMP DP  RH WIND       PRES   REMARKS
TWIN CITIES    FAIR      80  68  66 SW9       29.78F
ST PAUL        FAIR      79  68  69 S14       29.78F
CRYSTAL        FAIR      80  66  62 SW9G17    29.76F
BLAINE         MOSUNNY   82  66  57 S12G17    29.77F
LAKEVILLE      FAIR      77  68  73 S8        29.79F
EDEN PRAIRIE   FAIR      81  68  64 SW9       29.78S
SOUTH ST PAUL  FAIR      79  67  66 S13       29.78F
LAKE ELMO      FAIR      77  68  73 S13       29.80F
$$
MNZ001>005-007-008-013>017-022>024-027-028-251800-
   Northwest Minnesota

CITY           SKY/WX    TMP DP  RH WIND       PRES   REMARKS
BEMIDJI        FAIR      81  58  45 W10G18    29.71S
HALLOCK        FAIR      82  59  44 W7        29.63F
ROSEAU         FAIR      79  63  57 W8        29.65S
WARROAD        FAIR      79  64  61 W8        29.65S
THIEF RVR FALL FAIR      79  63  57 SW10      29.68F
CROOKSTON      FAIR      84  57  39 NW13      29.66F
FOSSTON        FAIR      81  55  41 SW13G21   29.70F
DETROIT LAKES  FAIR      82  54  36 W10       29.74F
MOORHEAD       FAIR      88  50  27 W14G21    29.69F
PARK RAPIDS    PTSUNNY   84  59  42 SW9G20    29.72F
MAHNOMEN       FAIR      84  56  38 W12G20    29.70F
$$
MNZ006-009>011-018-025>026-251800-
   North Central Minnesota

CITY           SKY/WX    TMP DP  RH WIND       PRES   REMARKS
BAUDETTE       FAIR      81  59  47 W13       29.64F
FLAG ISLAND    FAIR      66  57  72 SE8       29.63S
INTL FALLS     FAIR      80  57  45 SW12G20   29.65F
WASKISH          N/A     77  63  61 SW8       29.69S
BIG FORK       FAIR      82  57  42 W8G16     29.69S
LONGVILLE      FAIR      82  57  42 SW7G16    29.73S
GRAND RAPIDS   FAIR      80  60  50 W8        29.74S
CRANE LAKE     FAIR      79  55  44 S10       29.68S
ORR            FAIR      81  54  39 W9        29.66S
COOK           FAIR      81  57  44 SW14      29.69F
WALKER         PTSUNNY   81  57  44 W8G17     29.71F
$$
MNZ012-019>021-037-251800-
   Northeast Minnesota

CITY           SKY/WX    TMP DP  RH WIND       PRES   REMARKS
DULUTH         FAIR      82  64  54 SW12      29.73S
ELY            FAIR      81  55  41 W13G20    29.69S
HIBBING        FAIR      81  60  48 W7G16     29.71S
EVELETH        FAIR      81  59  47 W13       29.72S
DULUTH HARBOR  FAIR      79  66  65 W15       29.70F
TWO HARBORS    FAIR      79  64  61 S9        29.69F
SILVER BAY     FAIR      79  63  57 S10       29.68F
GRAND MARAIS     N/A     43  41  93 SW3       29.70S
G MARAIS ARPRT FAIR      73  57  56 CALM      29.72S
$$
MNZ029>031-032-039>041-046>048-054>057-064-251800-
   West Central Minnesota

CITY           SKY/WX    TMP DP  RH WIND       PRES   REMARKS
FERGUS FALLS   FAIR      84  57  39 W12G18    29.68F
WHEATON        SUNNY     88  54  31 SW8       29.74F
MORRIS         SUNNY     88  55  33 W10       29.74S
ALEXANDRIA     FAIR      85  59  41 W8        29.78S
ELBOW LAKE     FAIR      85  57  38 W16       29.75S
WADENA         FAIR      81  59  47 W9G18     29.74S
GLENWOOD       FAIR      82  61  47 W7        29.78S
APPLETON       SUNNY     88  55  33 W10       29.75S
BENSON         SUNNY     88  57  35 NW7       29.77S
ORTONVILLE     SUNNY     88  55  33 W7        29.75F
MADISON        SUNNY     90  55  31 W9G16     29.76F
WILLMAR        FAIR      86  54  32 W18       29.78F
$$
MNZ033>034-036-042>043-049>051-058-059-251800-
   Central Minnesota

CITY           SKY/WX    TMP DP  RH WIND       PRES   REMARKS
ST CLOUD       FAIR      86  58  38 W9G18     29.75S
SAUK CENTRE    FAIR      84  57  39 W9G17     29.77S
PAYNESVILLE    FAIR      85  59  40 W9G16     29.77S
AITKIN         FAIR      81  61  50 SW8       29.72F
PINE RIVER     FAIR      79  57  47 W8        29.77S
BRAINERD       FAIR      85  60  42 W9        29.74F
STAPLES        FAIR      84  54  34 NW12      29.74S
LONG PRAIRIE   FAIR      82  55  39 SW10      29.77S
LITTLE FALLS   FAIR      82  59  44 W9        29.75F
LITCHFIELD     FAIR      86  63  45 W9        29.77R
BUFFALO        FAIR      80  65  60 S7        29.78S
MAPLE LAKE     FAIR      85  67  55 W5        29.78R
HUTCHINSON     FAIR      82  68  62 CALM      29.79S
$$
MNZ037-044-045-052-053-251800-
   East Central Minnesota

CITY           SKY/WX    TMP DP  RH WIND       PRES   REMARKS
PRINCETON      FAIR      84  66  54 S5        29.76S
MORA           FAIR      79  63  57 SW6       29.77S
CAMBRIDGE      FAIR      84  66  54 S8        29.76S
RUSH CITY      FAIR      79  65  62 S8G16     29.76F
MOOSE LAKE     FAIR      79  63  57 SW6       29.72S
HINCKLEY       FAIR      79  68  69 SW9G16    29.76S
CLOQUET        FAIR      81  61  50 SW12      29.73S
MCGREGOR       FAIR      81  61  50 SW6       29.74S
$$
MNZ071>073-080-081-089-090-097-098-251800-
   Southwest Minnesota

CITY           SKY/WX    TMP DP  RH WIND       PRES   REMARKS
MONTEVIDEO     SUNNY     91  55  29 N7        29.76S
CANBY          SUNNY     87  56  35 W9        29.78F
MARSHALL       SUNNY     86  58  38 NW10      29.79S
REDWOOD FALLS  SUNNY     84  61  45 W5        29.77F
OLIVIA         SUNNY     82  63  51 SW5       29.77S
PIPESTONE      SUNNY     86  55  35 NW3       29.82F
WINDOM         SUNNY     84  55  37 CALM      29.80F
WORTHINGTON    SUNNY     85  57  38 VRB5      29.83S
JACKSON        SUNNY     82  59  44 NW6       29.83S
TRACY          SUNNY     87  55  33 W6        29.79S
SLAYTON        SUNNY     85  54  33 NW6       29.83S
$$
MNZ065>067-074>077-082>085-091>093-251800-
   South Central Minnesota

CITY           SKY/WX    TMP DP  RH WIND       PRES   REMARKS
MANKATO        FAIR      84  65  52 SW3       29.80S
NEW ULM        SUNNY     82  61  47 CALM      29.79S
ST JAMES       SUNNY     86  57  37 W6        29.80F
FAIRMONT       SUNNY     82  66  58 VRB5      29.81F
GLENCOE        FAIR      81  68  63 S3        29.78S
FARIBAULT      PTSUNNY   77  66  69 CALM      29.81S
OWATONNA       FAIR      81  64  57 SW10      29.82S
WASECA         PTSUNNY   81  63  54 SW8       29.82S
ALBERT LEA     FAIR      81  63  54 SW7       29.82F
$$
MNZ078>079-086>088-094>096-251800-
   Southeast Minnesota

CITY           SKY/WX    TMP DP  RH WIND       PRES   REMARKS
ROCHESTER      FAIR      82  66  58 S17       29.83F
RED WING       FAIR      79  63  57 SW9       29.79S
STANTON        PTSUNNY   79  68  69 SW10      29.79S
DODGE CENTER   FAIR      81  64  57 S13       29.82F
WINONA         FAIR      75  66  73 SE8       29.82F
AUSTIN         FAIR      81  64  57 S8        29.83S
PRESTON        FAIR      78  64  62 S9        29.85F
$$
ABBREVIATIONS USED IN REMARKS
   TC - TEMPERATURES IN CELSIUS
  WCI - WIND CHILL INDEX
   HX - HEAT INDEX
  VSB - VISIBILITY
$$




USA.gov is the U.S. government's official web portal to all federal, state and local government web resources and services.